Back to catalog

CZ-6A DEB

AlivePO
NORAD 61481·DEBRIS·🇨🇳 China

Launched Aug 6, 2024 from Taiyuan Satellite Launch Center

Loading…

Next Passes (next 24 hours)

TLE

FreshSource: Space-Track

Epoch: Sep 14, 2026, 10:42 UTC

1 61481U 24140AAP 26257.44606888  .00001969  00000-0  82424-3 0  9995
2 61481  88.8794 254.3871 0136979 194.3578 165.3705 14.20778682104803

Track CZ-6A DEB in real time with AllMySat

Download on the App Store